Regional Weather Roundup
Issued by NWS

Home | Current Version | Previous Version | Graphics & Text | Print | Product List | Glossary On
Versions: 1 2 3 4 5 6 7 8 9 10 11 12 13 14 15 16 17 18 19 20 21 22 23 24 25 26 27 28 29 30 31 32 33 34 35 36 37 38 39 40 41 42 43 44 45 46 47 48 49 50
000
ASUS45 KBOU 311407
RWRCO

WEATHER ROUNDUP FOR COLORADO
NATIONAL WEATHER SERVICE DENVER/BOULDER CO
800 AM MDT SUN AUG 31 2014

NOTE: "FAIR" INDICATES FEW OR NO CLOUDS BELOW 12000 FEET WITH NO
SIGNIFICANT WEATHER AND/OR OBSTRUCTIONS TO VISIBILITY.

COZ001>005-013-030-031-311500-
...NORTHWEST COLORADO...

CITY           SKY/WX    TMP DP  RH WIND       PRES   REMARKS
CRAIG          CLOUDY    54  49  83 SE12      30.04S
HAYDEN         CLOUDY    52  48  87 SE3       30.07S THUNDER
MEEKER         LGT RAIN  57  48  72 E7        30.03R
MOUNT WERNER   NOT AVBL
STEAMBOAT SPGS CLOUDY    50  49  95 NE3       30.08R
WALDEN         CLOUDY    46  43  87 N3        30.13R
$$

COZ006>008-011-311500-
...WEST CENTRAL VALLEYS...

CITY           SKY/WX    TMP DP  RH WIND       PRES   REMARKS
GRAND JUNCTION PTSUNNY   63  45  51 SE8       29.91R
MONTROSE       PTSUNNY   68  38  33 SE10      30.01R
EAGLE          CLOUDY    52  48  87 CALM      30.07S
RIFLE          CLOUDY    58  50  75 NE6       29.96R
DELTA          PTSUNNY   65  45  47 N8        29.98R HAZE
NUCLA          PTSUNNY   70  36  28 S10       30.07R
$$

COZ017>023-064>068-311500-
...SOUTHWEST COLORADO...

CITY           SKY/WX    TMP DP  RH WIND       PRES   REMARKS
DURANGO        SUNNY     52  39  61 VRB3      30.16R
CORTEZ         SUNNY     57  43  59 E6        30.10R
PAGOSA SPRINGS SUNNY     53  38  55 CALM      30.22S
TELLURIDE      MOSUNNY   59  32  36 S8        30.27S
WOLF CREEK PAS CLOUDY    41  32  70 SW18G28   30.44F
$$

COZ009-010-012-014-032>034-037-058>063-311500-
...CENTRAL COLORADO...

CITY           SKY/WX    TMP DP  RH WIND       PRES   REMARKS
ASPEN          CLOUDY    57  39  51 S7        30.10R
BUENA VISTA    MOSUNNY   55  38  53 CALM      30.12S
COPPER MTN     LGT RAIN  45  32  61 SW18G38   30.39R
BERTHOUD PASS  DRIZZLE   36  36 100 W30G39    30.38R
COTTONWOOD PAS MOSUNNY   61  27  27 NW7G23    30.24S
GUNNISON       MOSUNNY   45  37  76 NE6       30.19F
KREMMLING      PTSUNNY   50  43  76 CALM      30.11S
LEADVILLE      CLOUDY    52  30  43 CALM      30.23R
SALIDA         MOSUNNY   62  39  43 CALM      30.18R
SUNLIGHT       CLOUDY    48  41  76 CALM      30.30R
WILKERSON PASS NOT AVBL
$$

COZ069>075-311500-
...SAN LUIS VALLEY/SANGRE DE CRISTO MOUNTAINS...

CITY           SKY/WX    TMP DP  RH WIND       PRES   REMARKS
ALAMOSA        MOSUNNY   56  37  49 S6        30.17R
LA VETA PASS   NOT AVBL
SAGUACHE       NOT AVBL
$$

COZ035-036-038>040-311500-
...NORTHERN COLORADO FRONT RANGE...

CITY           SKY/WX    TMP DP  RH WIND       PRES   REMARKS
DENVER INTL AP PTSUNNY   59  51  75 N12       29.94R
DMNS CITY PARK   N/A     62  49  63 NE12      29.92F
AURORA         PTSUNNY   58  48  70 N10       29.96R
FRONT RANGE AP PTSUNNY   61  52  72 N12       29.95R
ERIE MUNI ARPT MOSUNNY   56  51  84 SW3       29.92S
BOULDER MUN AP MOSUNNY   61  46  59 SE3       29.93R
CENTENNIAL     PTSUNNY   64  42  44 N15       29.96R
BROOMFIELD     PTSUNNY   59  46  63 NW8       29.95R
FORT COLLINS   CLOUDY    61  48  63 NE8       29.92F
LONGMONT       CLOUDY    64  50  61 SW6       29.93R
$$

COZ041-046-047-076>085-087-088-311500-
...PIKES PEAK/PALMER DIVIDE AND SOUTHERN FOOTHILLS...

CITY           SKY/WX    TMP DP  RH WIND       PRES   REMARKS
COLO. SPRINGS  PTSUNNY   64  45  49 SE7       30.00S
A. F. ACADEMY  MOSUNNY   55  46  72 NW7       30.02R
ELLICOTT       MOSUNNY   58  50  75 CALM      29.98S
FALCON         MOSUNNY   60  45  56 CALM      30.04S
FORT CARSON    MOSUNNY   61  49  64 NW5       29.96F
LIMON          CLOUDY    63  49  60 SE3       29.91F
MONUMENT HILL  PTSUNNY   57  43  58 S13       30.01S
TRINIDAD       MOSUNNY   70  39  32 SW6       29.99S
$$

COZ042>045-048>051-090-091-311500-
...NORTHEAST COLORADO...

CITY           SKY/WX    TMP DP  RH WIND       PRES   REMARKS
GREELEY ARPT   CLOUDY    59  46  63 N18       29.90F
AKRON          CLOUDY    61  53  75 NW17      29.91R
BURLINGTON     PTSUNNY   66  57  72 SW13      29.84S
WRAY             N/A     65  57  75 W5        29.82S
STERLING       LGT RAIN  64  55  72 N17G29    29.90R
HOLYOKE        SUNNY     66  55  68 NW7       29.85R
FORT MORGAN    CLOUDY    63  48  59 N17       29.91S
$$

COZ086-089-092>099-311500-
...SOUTHEAST COLORADO...

CITY           SKY/WX    TMP DP  RH WIND       PRES   REMARKS
PUEBLO         SUNNY     60  46  59 W3        29.91R
LA JUNTA       MOSUNNY   58  51  78 NW8       29.87S
LAMAR          PTSUNNY   63  55  75 W6        29.83S
SPRINGFIELD      N/A     75  44  33 SW20G28   29.88F
$$



USA.gov is the U.S. government's official web portal to all federal, state and local government web resources and services.